Weather History for Punta Gorda, FL

Change the Weather History Date:

Thursday, February 7, 2013

  Actual Average Record
Temperature  
Mean Temperature 70 °F -  
Max Temperature 82 °F 72 °F 84 °F (2008)
Min Temperature 57 °F 50 °F 42 °F (2000)
Cooling Degree Days 4    
Growing Degree Days 20 (Base 50)    
Moisture  
Dew Point 60 °F    
Average Humidity 76    
Maximum Humidity 100    
Minimum Humidity 41    
Precipitation  
Precipitation 0.01 in - - ()
Sea Level Pressure  
Sea Level Pressure 30.04 in    
Wind  
Wind Speed 6 mph (SSE)    
Max Wind Speed 22 mph    
Max Gust Speed 30 mph    
Visibility 8 miles    
Events Fog , Rain    
Averages and records for this station are not official NWS values.
T = Trace of Precipitation, MM = Missing Value Source: NWS Daily Summary

Daily Weather History Graph

Daily Weather History Graph

Search for Another Location

Airport:

Trip Planner

Search our weather history database for the weather conditions in past years. The results will help you decide how hot, cold, wet, or windy it might be!

Date:

Astronomy

Feb. 07, 2013 Rise Set
Actual Time 7:09 AM EST 6:14 PM EST
Civil Twilight 6:45 AM EST 6:38 PM EST
Nautical Twilight 6:18 AM EST 7:06 PM EST
Astronomical Twilight 5:50 AM EST 7:33 PM EST
Moon 4:39 AM EST (2/7) 3:45 PM EST (2/7)
Length of Visible Light 11h 52m
Length of Day
11h 04m
Waning Crescent, 9% of the Moon is Illuminated
Feb 7
Waning Crescent
Feb 10
New
Feb 17
First Quarter
Feb 25
Full
Mar 4
Last Quarter

Hourly Weather History & Observations

Time (EST) Temp. Heat Index Dew Point Humidity Pressure Visibility Wind Dir Wind Speed Gust Speed Precip Events Conditions
12:53 AM 66.9 °F - 62.1 °F 84% 30.10 in 10.0 mi Calm Calm - N/A   Overcast
1:53 AM 64.0 °F - 61.0 °F 90% 30.10 in 10.0 mi ENE 3.5 mph - N/A   Overcast
2:53 AM 64.9 °F - 62.1 °F 90% 30.07 in 10.0 mi SE 5.8 mph - N/A   Mostly Cloudy
3:53 AM 64.0 °F - 61.0 °F 90% 30.06 in 10.0 mi ESE 5.8 mph - N/A   Clear
4:53 AM 61.0 °F - 59.0 °F 93% 30.06 in 10.0 mi East 4.6 mph - N/A   Clear
5:53 AM 60.1 °F - 59.0 °F 96% 30.08 in 6.0 mi East 4.6 mph - N/A   Clear
5:57 AM 59.0 °F - 57.2 °F 94% 30.07 in 1.8 mi East 4.6 mph - N/A   Clear
6:07 AM 59.0 °F - 57.2 °F 94% 30.08 in 0.8 mi East 3.5 mph - N/A   Clear
6:14 AM 59.0 °F - 57.2 °F 94% 30.08 in 1.8 mi ENE 3.5 mph - N/A   Clear
6:24 AM 57.2 °F - 57.2 °F 100% 30.08 in 0.2 mi Calm Calm - N/A Fog Fog
6:53 AM 57.0 °F - 55.9 °F 96% 30.09 in 5.0 mi East 3.5 mph - N/A   Clear
7:53 AM 60.1 °F - 59.0 °F 96% 30.10 in 5.0 mi Calm Calm - N/A   Clear
8:53 AM 69.1 °F - 63.0 °F 81% 30.10 in 7.0 mi SE 4.6 mph - N/A   Clear
9:53 AM 75.0 °F - 63.0 °F 66% 30.09 in 10.0 mi SSE 9.2 mph - N/A   Clear
10:53 AM 78.1 °F - 59.0 °F 52% 30.08 in 10.0 mi SSE 13.8 mph 21.9 mph N/A   Clear
11:53 AM 81.0 °F 81.3 °F 59.0 °F 47% 30.06 in 10.0 mi SSE 8.1 mph - N/A   Clear
12:53 PM 82.9 °F 82.4 °F 57.0 °F 41% 30.03 in 10.0 mi South 11.5 mph - N/A   Clear
1:53 PM 82.9 °F 82.4 °F 57.0 °F 41% 29.99 in 10.0 mi South 6.9 mph 19.6 mph N/A   Partly Cloudy
2:53 PM 82.0 °F 82.4 °F 60.1 °F 47% 29.98 in 10.0 mi SW 15.0 mph - N/A   Clear
3:53 PM 81.0 °F 81.1 °F 57.9 °F 45% 29.96 in 10.0 mi SSW 15.0 mph - N/A   Clear
4:53 PM 78.1 °F - 62.1 °F 58% 29.98 in 10.0 mi SW 15.0 mph - N/A   Clear
5:53 PM 75.0 °F - 63.0 °F 66% 29.99 in 10.0 mi SSW 11.5 mph - N/A   Clear
6:53 PM 73.0 °F - 63.0 °F 71% 30.01 in 10.0 mi SSW 9.2 mph - N/A   Clear
7:53 PM 71.1 °F - 64.0 °F 78% 30.02 in 10.0 mi SSW 6.9 mph - N/A   Clear
8:53 PM 70.0 °F - 64.0 °F 81% 30.04 in 10.0 mi SW 4.6 mph - N/A   Clear
9:53 PM 72.0 °F - 64.9 °F 78% 29.99 in 10.0 mi SSW 16.1 mph - 0.01 in Rain Light Rain
10:53 PM 71.1 °F - 64.0 °F 78% 29.96 in 10.0 mi SW 21.9 mph 29.9 mph 0.00 in   Scattered Clouds
11:53 PM 72.0 °F - 64.0 °F 76% 29.93 in 10.0 mi SW 20.7 mph 29.9 mph 0.00 in   Partly Cloudy